TimeCET,TemperatureF,Dew PointF,Humidity,Sea Level PressureIn,VisibilityMPH,Wind Direction,Wind SpeedMPH,Gust SpeedMPH,PrecipitationIn,Events,Conditions,WindDirDegrees,DateUTC
12:55 AM,24.8,14.0,64,29.77,-9999.0,NNE,5.8,-,N/A,,Clear,20,2012-10-29 23:55:00
1:55 AM,24.8,14.0,64,29.77,-9999.0,NNE,6.9,-,N/A,,Clear,20,2012-10-30 00:55:00
2:55 AM,24.8,10.4,54,29.77,-9999.0,North,5.8,-,N/A,,Clear,10,2012-10-30 01:55:00
3:55 AM,24.8,8.6,50,29.77,-9999.0,NNE,4.6,-,N/A,,Clear,20,2012-10-30 02:55:00
4:55 AM,24.8,8.6,50,29.77,-9999.0,NNE,5.8,-,N/A,,Clear,20,2012-10-30 03:55:00
5:55 AM,24.8,12.2,59,29.74,-9999.0,North,4.6,-,N/A,,Clear,10,2012-10-30 04:55:00
6:55 AM,24.8,12.2,59,29.74,-9999.0,NNE,3.5,-,N/A,,Clear,20,2012-10-30 05:55:00
7:55 AM,26.6,14.0,59,29.74,-9999.0,Calm,Calm,-,N/A,,Clear,0,2012-10-30 06:55:00
8:55 AM,26.6,14.0,59,29.71,-9999.0,South,3.5,-,N/A,,Clear,170,2012-10-30 07:55:00
9:55 AM,28.4,12.2,51,29.74,-9999.0,SSW,2.3,-,N/A,,Clear,210,2012-10-30 08:55:00
10:55 AM,28.4,12.2,51,29.71,6.2,South,3.5,-,N/A,,Mostly Cloudy,190,2012-10-30 09:55:00
11:55 AM,32.0,12.2,44,29.71,6.2,South,5.8,-,N/A,,Scattered Clouds,190,2012-10-30 10:55:00
12:55 PM,32.0,8.6,38,29.71,-9999.0,South,4.6,-,N/A,,Clear,190,2012-10-30 11:55:00
1:55 PM,35.6,8.6,33,29.71,-9999.0,South,5.8,-,N/A,,Clear,190,2012-10-30 12:55:00
2:55 PM,35.6,6.8,30,29.71,-9999.0,South,5.8,-,N/A,,Clear,180,2012-10-30 13:55:00
3:55 PM,35.6,8.6,33,29.71,-9999.0,South,6.9,-,N/A,,Clear,180,2012-10-30 14:55:00
4:55 PM,32.0,8.6,38,29.71,-9999.0,South,3.5,-,N/A,,Clear,180,2012-10-30 15:55:00
5:55 PM,32.0,14.0,48,29.71,-9999.0,WSW,4.6,-,N/A,,Clear,240,2012-10-30 16:55:00
6:55 PM,28.4,12.2,51,29.71,-9999.0,Calm,Calm,-,N/A,,Clear,0,2012-10-30 17:55:00
7:55 PM,28.4,14.0,55,29.74,-9999.0,Calm,Calm,-,N/A,,Clear,0,2012-10-30 18:55:00
8:55 PM,28.4,14.0,55,29.74,-9999.0,Calm,Calm,-,N/A,,Clear,0,2012-10-30 19:55:00
9:55 PM,26.6,14.0,59,29.74,-9999.0,Calm,Calm,-,N/A,,Clear,0,2012-10-30 20:55:00
10:55 PM,26.6,15.8,64,29.74,-9999.0,East,2.3,-,N/A,,Clear,80,2012-10-30 21:55:00
11:55 PM,26.6,17.6,69,29.74,-9999.0,NNE,3.5,-,N/A,,Clear,30,2012-10-30 22:55:00